TimeEST,TemperatureF,Dew PointF,Humidity,Sea Level PressureIn,VisibilityMPH,Wind Direction,Wind SpeedMPH,Gust SpeedMPH,PrecipitationIn,Events,Conditions,WindDirDegrees,DateUTC
12:51 AM,27.0,19.0,72,29.72,-9999.0,NW,15.0,36.8,N/A,,Unknown,310,2013-01-04 05:51:00
1:51 AM,28.0,21.9,78,29.73,-9999.0,NW,10.4,26.5,N/A,,Unknown,320,2013-01-04 06:51:00
2:51 AM,28.9,21.0,72,29.74,-9999.0,NNW,15.0,27.6,N/A,,Unknown,330,2013-01-04 07:51:00
3:51 AM,28.9,21.9,75,29.74,-9999.0,NNW,20.7,33.4,N/A,,Unknown,330,2013-01-04 08:51:00
4:51 AM,28.9,21.9,75,29.75,-9999.0,NNW,16.1,28.8,N/A,,Unknown,330,2013-01-04 09:51:00
5:51 AM,30.0,23.0,75,29.77,-9999.0,NW,17.3,33.4,N/A,,Unknown,320,2013-01-04 10:51:00
6:51 AM,30.0,23.0,75,29.76,-9999.0,NW,9.2,20.7,N/A,,Unknown,320,2013-01-04 11:51:00
7:51 AM,28.9,23.0,78,29.77,-9999.0,NW,9.2,21.9,N/A,,Unknown,320,2013-01-04 12:51:00
8:51 AM,28.9,23.0,78,29.76,-9999.0,NW,10.4,23.0,N/A,,Unknown,320,2013-01-04 13:51:00
9:51 AM,30.0,24.1,79,29.78,-9999.0,NNW,8.1,-,N/A,,Unknown,330,2013-01-04 14:51:00
10:51 AM,30.9,25.0,79,29.80,-9999.0,NW,16.1,34.5,N/A,,Unknown,320,2013-01-04 15:51:00
11:51 AM,33.1,25.0,72,29.78,-9999.0,NNW,21.9,33.4,N/A,,Unknown,330,2013-01-04 16:51:00
12:51 PM,34.0,25.0,70,29.78,-9999.0,NNW,18.4,29.9,N/A,,Unknown,330,2013-01-04 17:51:00
1:51 PM,34.0,25.0,70,29.77,-9999.0,NNW,20.7,33.4,N/A,,Unknown,330,2013-01-04 18:51:00
2:51 PM,34.0,25.0,70,29.80,-9999.0,NNW,25.3,42.6,N/A,,Unknown,330,2013-01-04 19:51:00
3:51 PM,32.0,24.1,73,29.83,-9999.0,North,32.2,39.1,N/A,,Unknown,360,2013-01-04 20:51:00
4:51 PM,30.0,21.9,72,29.89,-9999.0,North,34.5,42.6,N/A,,Unknown,360,2013-01-04 21:51:00
5:51 PM,30.0,21.0,69,29.94,-9999.0,North,29.9,36.8,N/A,,Unknown,350,2013-01-04 22:51:00
6:51 PM,30.0,21.0,69,29.98,-9999.0,North,29.9,38.0,N/A,,Unknown,360,2013-01-04 23:51:00
7:51 PM,30.0,21.0,69,30.01,-9999.0,North,27.6,33.4,N/A,,Unknown,350,2013-01-05 00:51:00
8:51 PM,30.9,21.0,67,30.04,-9999.0,North,24.2,-,N/A,,Unknown,360,2013-01-05 01:51:00
9:51 PM,30.9,19.9,64,30.06,-9999.0,North,17.3,-,N/A,,Unknown,360,2013-01-05 02:51:00
10:51 PM,30.0,21.0,69,30.10,-9999.0,North,15.0,-,N/A,,Unknown,360,2013-01-05 03:51:00
11:51 PM,30.0,19.9,66,30.11,-9999.0,North,12.7,-,N/A,,Unknown,10,2013-01-05 04:51:00